IGO530C VABB-VIAR

Flight info

Callsign IGO530C
Flight time N/A
Altitude 37000
Route ANOLI2A ISRIS Z1 ASARI
Aircraft A21N/M-SDE3FGHIRWY/LB1

Departure

Time 2026-05-05 07:42
Airport Chhatrapati Shivaji Maharaj International Airport (VABB)

Arrival

Time N/A
Airport Sri Guru Ram Das Ji International Airport (VIAR)
Time Latitude Longitude Altitude Speed Heading
2026-05-05 07:13 19.09326 72.87211 35 ft 0 kts 342°
2026-05-05 07:27 19.09323 72.87212 35 ft 2 kts 343°
2026-05-05 07:27 19.09309 72.87216 34 ft 2 kts 342°
2026-05-05 07:27 19.09304 72.87218 34 ft 2 kts 349°
2026-05-05 07:28 19.09294 72.87219 34 ft 2 kts
2026-05-05 07:28 19.09277 72.87217 34 ft 2 kts 17°
2026-05-05 07:28 19.09262 72.87209 34 ft 2 kts 33°
2026-05-05 07:28 19.09249 72.87198 33 ft 2 kts 50°
2026-05-05 07:29 19.09240 72.87184 33 ft 2 kts 65°
2026-05-05 07:29 19.09235 72.87168 33 ft 2 kts 80°
2026-05-05 07:29 19.09234 72.87158 33 ft 1 kts 90°
2026-05-05 07:29 19.09235 72.87168 33 ft 4 kts 85°
2026-05-05 07:30 19.09237 72.87195 33 ft 1 kts 87°
2026-05-05 07:30 19.09237 72.87201 33 ft 0 kts 91°
2026-05-05 07:30 19.09237 72.87202 33 ft 0 kts 91°
2026-05-05 07:32 19.09236 72.87206 33 ft 0 kts 91°
2026-05-05 07:32 19.09236 72.87209 33 ft 0 kts 91°
2026-05-05 07:32 19.09236 72.87211 33 ft 0 kts 91°
2026-05-05 07:33 19.09236 72.87214 33 ft 0 kts 91°
2026-05-05 07:33 19.09236 72.87223 33 ft 2 kts 91°
2026-05-05 07:33 19.09236 72.87244 33 ft 3 kts 91°
2026-05-05 07:33 19.09235 72.87277 33 ft 5 kts 92°
2026-05-05 07:34 19.09234 72.87321 33 ft 6 kts 91°
2026-05-05 07:34 19.09253 72.87365 33 ft 6 kts 38°
2026-05-05 07:34 19.09296 72.87373 34 ft 6 kts 356°
2026-05-05 07:34 19.09340 72.87374 35 ft 5 kts 12°
2026-05-05 07:35 19.09372 72.87391 36 ft 4 kts 35°
2026-05-05 07:35 19.09393 72.87411 37 ft 3 kts 48°
2026-05-05 07:35 19.09409 72.87432 38 ft 3 kts 57°
2026-05-05 07:35 19.09420 72.87467 37 ft 6 kts 93°
2026-05-05 07:36 19.09386 72.87511 36 ft 9 kts 126°
2026-05-05 07:36 19.09344 72.87573 35 ft 11 kts 127°
2026-05-05 07:36 19.09293 72.87641 34 ft 9 kts 129°
2026-05-05 07:36 19.09231 72.87675 33 ft 11 kts 181°
2026-05-05 07:37 19.09153 72.87698 32 ft 12 kts 122°
2026-05-05 07:37 19.09131 72.87777 33 ft 9 kts 120°
2026-05-05 07:37 19.09075 72.87817 33 ft 9 kts 135°
2026-05-05 07:37 19.09060 72.87873 34 ft 6 kts 90°
2026-05-05 07:38 19.09059 72.87910 35 ft 3 kts 90°
2026-05-05 07:38 19.09059 72.87920 36 ft 0 kts 90°
2026-05-05 07:38 19.09059 72.87918 36 ft 0 kts 90°
2026-05-05 07:38 19.09059 72.87919 36 ft 1 kts 90°
2026-05-05 07:39 19.09059 72.87938 36 ft 4 kts 90°
2026-05-05 07:39 19.09058 72.87985 38 ft 7 kts 90°
2026-05-05 07:39 19.09030 72.88042 39 ft 9 kts 153°
2026-05-05 07:39 19.08960 72.88057 38 ft 11 kts 181°
2026-05-05 07:40 19.08905 72.88042 37 ft 6 kts 215°
2026-05-05 07:40 19.08889 72.87994 36 ft 7 kts 265°
2026-05-05 07:40 19.08887 72.87932 36 ft 8 kts 268°
2026-05-05 07:40 19.08886 72.87888 34 ft 0 kts 269°
2026-05-05 07:41 19.08886 72.87882 34 ft 4 kts 269°
2026-05-05 07:41 19.08884 72.87789 31 ft 20 kts 269°
2026-05-05 07:42 19.08879 72.87371 26 ft 91 kts 269°
2026-05-05 07:42 19.08866 72.86454 35 ft 149 kts 269°
2026-05-05 07:42 19.08846 72.85165 114 ft 189 kts 269°
2026-05-05 07:42 19.08837 72.83761 670 ft 193 kts 270°
2026-05-05 07:43 19.08829 72.82309 1279 ft 201 kts 270°
2026-05-05 07:43 19.08812 72.80826 1920 ft 202 kts 269°
2026-05-05 07:43 19.08797 72.79328 2313 ft 210 kts 271°
2026-05-05 07:43 19.08829 72.77720 2622 ft 221 kts 271°
2026-05-05 07:44 19.08847 72.76023 2957 ft 236 kts 270°
2026-05-05 07:44 19.08828 72.74243 3351 ft 248 kts 272°
2026-05-05 07:44 19.09263 72.72469 3706 ft 260 kts 303°
2026-05-05 07:44 19.10643 72.71218 4123 ft 270 kts 339°
2026-05-05 07:45 19.12506 72.71038 4723 ft 274 kts
2026-05-05 07:45 19.14317 72.71733 5409 ft 277 kts 33°
2026-05-05 07:45 19.15700 72.73364 6150 ft 280 kts 57°
2026-05-05 07:45 19.16897 72.75126 6853 ft 282 kts 42°
2026-05-05 07:46 19.18736 72.76149 7497 ft 283 kts 12°
2026-05-05 07:46 19.20790 72.76502 8059 ft 286 kts
2026-05-05 07:46 19.22852 72.76752 8745 ft 288 kts
2026-05-05 07:46 19.24922 72.76986 9436 ft 291 kts
2026-05-05 07:47 19.27015 72.77222 10084 ft 294 kts
2026-05-05 07:47 19.29192 72.77470 10477 ft 307 kts
2026-05-05 07:47 19.31393 72.77722 10829 ft 320 kts
2026-05-05 07:47 19.33617 72.77978 11398 ft 324 kts
2026-05-05 07:48 19.35858 72.78236 12009 ft 326 kts
2026-05-05 07:48 19.38133 72.78499 12598 ft 329 kts
2026-05-05 07:48 19.40508 72.78773 13203 ft 333 kts
2026-05-05 07:48 19.43044 72.79067 13835 ft 336 kts
2026-05-05 07:49 19.45577 72.79361 14441 ft 339 kts
2026-05-05 07:49 19.48125 72.79656 15019 ft 343 kts
2026-05-05 07:49 19.50596 72.79943 15583 ft 346 kts
2026-05-05 07:49 19.52963 72.80218 16113 ft 349 kts
2026-05-05 07:50 19.55395 72.80501 16645 ft 352 kts
2026-05-05 07:50 19.57822 72.80783 17162 ft 355 kts
2026-05-05 07:50 19.60301 72.81072 17677 ft 357 kts
2026-05-05 07:50 19.62750 72.81357 18173 ft 360 kts
2026-05-05 07:51 19.65234 72.81646 18664 ft 363 kts
2026-05-05 07:51 19.67909 72.81958 19179 ft 366 kts
2026-05-05 07:51 19.70603 72.82272 19686 ft 369 kts
2026-05-05 07:51 19.73276 72.82583 20178 ft 372 kts
2026-05-05 07:52 19.75982 72.82898 20664 ft 375 kts
2026-05-05 07:52 19.78598 72.83203 21126 ft 377 kts
2026-05-05 07:52 19.81220 72.83509 21577 ft 380 kts
2026-05-05 07:52 19.83909 72.83822 22028 ft 383 kts
2026-05-05 07:53 19.86559 72.84132 22460 ft 386 kts
2026-05-05 07:53 19.89260 72.84447 22888 ft 388 kts
2026-05-05 07:53 19.91985 72.84765 23306 ft 391 kts
2026-05-05 07:53 19.94720 72.85085 23714 ft 393 kts
2026-05-05 07:54 19.97476 72.85407 24115 ft 396 kts
2026-05-05 07:54 20.00217 72.85727 24503 ft 398 kts
2026-05-05 07:54 20.03020 72.86054 24888 ft 401 kts
2026-05-05 07:54 20.05812 72.86381 25258 ft 403 kts
2026-05-05 07:55 20.08507 72.86697 25605 ft 405 kts
2026-05-05 07:55 20.11292 72.87022 26003 ft 406 kts
2026-05-05 07:55 20.14187 72.87362 26428 ft 407 kts
2026-05-05 07:55 20.17027 72.87695 26781 ft 409 kts
2026-05-05 07:56 20.19885 72.88030 27114 ft 411 kts
2026-05-05 07:56 20.22748 72.88365 27447 ft 413 kts
2026-05-05 07:56 20.25576 72.88697 27773 ft 415 kts
2026-05-05 07:56 20.28475 72.89037 28102 ft 417 kts
2026-05-05 07:57 20.31434 72.89384 28432 ft 419 kts
2026-05-05 07:57 20.34399 72.89733 28756 ft 421 kts
2026-05-05 07:57 20.37365 72.90082 29067 ft 423 kts
2026-05-05 07:57 20.40324 72.90430 29370 ft 425 kts
2026-05-05 07:58 20.43338 72.90784 29673 ft 427 kts
2026-05-05 07:58 20.46355 72.91139 29972 ft 428 kts
2026-05-05 07:58 20.49404 72.91498 30267 ft 430 kts
2026-05-05 07:58 20.52442 72.91856 30555 ft 432 kts
2026-05-05 07:59 20.55482 72.92214 30838 ft 434 kts
2026-05-05 07:59 20.58542 72.92576 31118 ft 436 kts
2026-05-05 07:59 20.61637 72.92941 31394 ft 438 kts
2026-05-05 07:59 20.64735 72.93308 31663 ft 439 kts
2026-05-05 08:00 20.67853 72.93677 31931 ft 441 kts
2026-05-05 08:00 20.70978 72.94048 32189 ft 443 kts
2026-05-05 08:00 20.74132 72.94417 32442 ft 444 kts
2026-05-05 08:00 20.77294 72.94669 32690 ft 446 kts
2026-05-05 08:01 20.80571 72.94811 32944 ft 447 kts
2026-05-05 08:01 20.83794 72.94929 33186 ft 449 kts
2026-05-05 08:01 20.87111 72.95046 33429 ft 450 kts
2026-05-05 08:01 20.90366 72.95161 33701 ft 451 kts
2026-05-05 08:02 20.93501 72.95274 34021 ft 449 kts
2026-05-05 08:02 20.96632 72.95387 34343 ft 448 kts
2026-05-05 08:02 20.99731 72.95503 34640 ft 447 kts
2026-05-05 08:02 21.02812 72.95618 34916 ft 447 kts
2026-05-05 08:03 21.06022 72.95737 35205 ft 446 kts
2026-05-05 08:03 21.09283 72.95858 35493 ft 445 kts 360°
2026-05-05 08:03 21.12511 72.95975 35785 ft 444 kts 359°
2026-05-05 08:03 21.15765 72.96092 36064 ft 442 kts 359°
2026-05-05 08:04 21.18909 72.96207 36271 ft 443 kts 360°
2026-05-05 08:04 21.21971 72.96351 36431 ft 444 kts
2026-05-05 08:04 21.25051 72.96514 36579 ft 445 kts
2026-05-05 08:04 21.28155 72.96680 36725 ft 446 kts
2026-05-05 08:05 21.31314 72.96850 36862 ft 447 kts
2026-05-05 08:05 21.34676 72.97028 36872 ft 448 kts
2026-05-05 08:05 21.41287 72.97374 36876 ft 448 kts
2026-05-05 08:06 21.47972 72.97724 36876 ft 449 kts
2026-05-05 08:06 21.54598 72.98161 36876 ft 450 kts
2026-05-05 08:07 21.60960 72.99255 36876 ft 452 kts 10°
2026-05-05 08:07 21.67011 73.01021 36874 ft 454 kts 14°
2026-05-05 08:08 21.73139 73.03020 36866 ft 454 kts 14°
2026-05-05 08:08 21.79405 73.05061 36858 ft 455 kts 14°
2026-05-05 08:09 21.85567 73.07060 36852 ft 455 kts 14°
2026-05-05 08:09 21.91763 73.09070 36850 ft 456 kts 14°
2026-05-05 08:10 21.97962 73.11082 36848 ft 456 kts 14°
2026-05-05 08:10 22.04189 73.13105 36848 ft 457 kts 14°
2026-05-05 08:11 22.10434 73.15137 36848 ft 458 kts 14°
2026-05-05 08:11 22.16648 73.17158 36840 ft 458 kts 14°
2026-05-05 08:12 22.22839 73.19176 36830 ft 459 kts 15°
2026-05-05 08:12 22.29111 73.21221 36824 ft 459 kts 15°
2026-05-05 08:13 22.35393 73.23058 36822 ft 458 kts 10°
2026-05-05 08:13 22.41793 73.24503 36822 ft 458 kts
2026-05-05 08:14 22.48165 73.25917 36822 ft 458 kts
2026-05-05 08:14 22.54476 73.27325 36822 ft 458 kts
2026-05-05 08:15 22.60778 73.28738 36822 ft 458 kts
2026-05-05 08:15 22.67119 73.30162 36822 ft 458 kts
2026-05-05 08:16 22.73497 73.31596 36822 ft 458 kts
2026-05-05 08:16 22.79900 73.33037 36822 ft 458 kts
2026-05-05 08:17 22.86257 73.34469 36822 ft 458 kts
2026-05-05 08:17 22.92463 73.35869 36822 ft 458 kts
2026-05-05 08:18 22.98705 73.37279 36822 ft 457 kts
2026-05-05 08:18 23.04993 73.38699 36822 ft 455 kts